STARLINK-1651 (46366 NORAD) Tracking and Keplerian Element Data

This shows tracking and keplerian element data for the satellite.

Feedback or suggestion? Click here.




ElementValue
Catalog46366
NameSTARLINK-1651
Epoch Orbit186
Epoch Day336.91667824
Epoch Year2020
RAAN351.4771
Inclination52.9977
Eccentricity0.0002513
Argument of Perigee23.6544
Mean Anonmoly310.8349
Mean Motion15.62751599
Decay Rate-5.627E-05
L11 46366U 20062AT 20336.91667824 -.00005627 00000-0 -55633-4 0 9990
L22 46366 52.9977 351.4771 0002513 23.6544 310.8349 15.62751599 1862

Live tracking and technical data element details for STARLINK-1651 (NORAD 46366). STARLINK-1651 can be tracked NOW for your location showing map with azimuth and elevation plus other details from your city location.

Track the satellite on the map from your city or location and see movement details for azimuth, elevation, latitude, longitude, range, height, and movement on the map or in text.







IsCatalogInMostPopularTable: catalog: 46366, numindb: 24
Update: records affected: 1



GetName: 46366 STARLINK-1651

Hit Count: updated at: Wed, 02 Dec 2020 19:03:41 GMT